THORAD AGENA D DEB, 13518

Orbit data source: Space-Track

THORAD AGENA D DEB, 13518 is space debris in SSO originally from a launch on Wed, 08 Apr 1970 UTC launched from the Air Force Western Test Range (AFWTR). Debris objects in space refer to the collection of defunct objects orbiting the Earth. Examples of debris include non-operational satellites, rocket bodies, and fragments generated from explosions, collisions, or faulty payload assembly.

Loading next visibility...
Identifier
13518, 1970-025NR
Orbit
SSO
Country
Flag of USUS
Related business
Manufacturer
Unknown
Mission
Spacecraft
Bus & Motor
Unknown
Mass
Unknown
Launch date (UTC)
1970-04-08 (56 years ago)
Launch vehicle
Unknown
Launch site
Air Force Western Test Range (AFWTR)
Object type
Payload
Rocket body
Debris
Shape & HBR
Unknown shape, 0.1 m
Radar Cross Section
Small (<0.1 m²)

Expand to show TLE details & history
Last TLE update: 8 hours ago

TLE from 8 hours ago
0 THORAD AGENA D DEB
1 13518U 70025NR  25287.83054036  .00002575  00000-0  22073-2 0  9990
2 13518 100.0338  59.7458 0003013 101.1485  63.1731 13.87904217216305
Epoch: 2025-10-14T19:55Z
TLE epoch observation values (Epoch: 2025-10-14T19:55:58.687Z)
Latitude
15.38109°
Longitude
-80.08677°
Altitude
937.127 km
Speed
7.385 km/s
True Right ascension
16h 10m 05s
True Declination
15° 17' 44"
Sunlit
Object was in daylight at epoch
Visualization orbit readout
Latitude
Unknown
Longitude
Unknown
Altitude
Unknown
Speed
Unknown
Apparent Right ascension
Unknown
Apparent Declination
Unknown
Sunlit
N/A
Visualization observer readout
Local Sidereal Time
22:01:30
Azimuth
Unknown
Elevation
Unknown
Doppler factor
Unknown
Orbital elements
Apogee altitude
935.456 km
Perigee altitude
931.05 km
Semi-major axis
7,311.39 km
Eccentricity
0.0003
Inclination
100.0338°
RAAN
59.7458°
Arg. of periapsis
101.1485°
True anomaly
63.20392°
Mean anomaly
63.1731°
Eccentric anomaly
63.18851°
Mean motion
3.47171 °/min
Orbital period
103.7 mins
BSTAR
0.0022073

Documentation

Showing up to 5 results
|